Weather History for Allentown, PA

Change the Weather History Date:

Monday, October 3, 2011

  Actual Average (KABE) Record (KABE)
Temperature  
Mean Temperature 48 °F 57 °F  
Max Temperature 53 °F 68 °F 83 °F (2007)
Min Temperature 44 °F 46 °F 32 °F (2003)
Degree Days  
Heating Degree Days 16 9  
Month to date heating degree days 25  
Since 1 July heating degree days 140  
Cooling Degree Days 0 1  
Month to date cooling degree days 3  
Year to date cooling degree days 753  
Moisture  
Dew Point 42 °F    
Average Humidity 80    
Maximum Humidity 93    
Minimum Humidity 58    
Precipitation  
Precipitation 0.00 in 0.14 in 1.85 in (1929)
Month to date precipitation 0.43  
Year to date precipitation 34.82  
Snow  
Snow 0.00 in 0.00 in 0.00 in ()
Month to date snowfall 0.0  
Since 1 July snowfall 0.0  
Since 1 September snowfall 0.0  
Snow Depth -    
Sea Level Pressure  
Sea Level Pressure 30.01 in    
Wind  
Wind Speed 3 mph (South)    
Max Wind Speed 7 mph    
Max Gust Speed -    
Visibility 10 miles    
Events Rain    
T = Trace of Precipitation, MM = Missing Value Source: NWS Daily Summary

Daily Weather History Graph

Daily Weather History Graph

Search for Another Location

Airport:

Trip Planner

Search our weather history database for the weather conditions in past years. The results will help you decide how hot, cold, wet, or windy it might be!

Date:

Astronomy

Oct. 03, 2011 Rise Set
Actual Time 7:00 AM EDT 6:41 PM EDT
Civil Twilight 6:32 AM EDT 7:08 PM EDT
Nautical Twilight 6:01 AM EDT 7:40 PM EDT
Astronomical Twilight 5:29 AM EDT 8:11 PM EDT
Moon 1:57 PM EDT (10/3) 11:40 PM EDT (10/3)
Length of Visible Light 12h 35m
Length of Day
11h 41m
Waxing Crescent, 45% of the Moon is Illuminated
Oct 3
Waxing Crescent
Oct 3
First Quarter
Oct 11
Full
Oct 19
Last Quarter
Oct 26
New

Hourly Weather History & Observations

Time (EDT) Temp. Windchill Dew Point Humidity Pressure Visibility Wind Dir Wind Speed Gust Speed Precip Events Conditions
12:15 AM 46.4 °F 45.2 °F 44.6 °F 93% 29.91 in 10.0 mi South 3.5 mph - N/A   Overcast
12:35 AM 46.4 °F 44.3 °F 44.6 °F 93% 29.91 in 10.0 mi SSE 4.6 mph - N/A   Overcast
12:55 AM 46.4 °F 44.3 °F 42.8 °F 87% 29.91 in 10.0 mi SSE 4.6 mph - N/A   Overcast
1:35 AM 46.4 °F 44.3 °F 42.8 °F 87% 29.91 in 10.0 mi South 4.6 mph - N/A   Overcast
1:55 AM 46.4 °F 44.3 °F 42.8 °F 87% 29.91 in 10.0 mi South 4.6 mph - N/A   Overcast
2:15 AM 46.4 °F 43.5 °F 42.8 °F 87% 29.92 in 10.0 mi South 5.8 mph - N/A   Overcast
2:35 AM 46.4 °F 45.2 °F 42.8 °F 87% 29.91 in 10.0 mi South 3.5 mph - N/A   Overcast
2:55 AM 44.6 °F 43.1 °F 42.8 °F 93% 29.91 in 10.0 mi South 3.5 mph - N/A   Scattered Clouds
3:15 AM 44.6 °F 43.1 °F 42.8 °F 93% 29.92 in 10.0 mi SSE 3.5 mph - N/A   Mostly Cloudy
3:35 AM 46.4 °F - 42.8 °F 87% 29.92 in 10.0 mi Calm Calm - N/A   Overcast
3:55 AM 46.4 °F - 42.8 °F 87% 29.93 in 10.0 mi Calm Calm - N/A   Overcast
4:15 AM 46.4 °F 45.2 °F 42.8 °F 87% 29.94 in 10.0 mi SSE 3.5 mph - N/A   Overcast
4:35 AM 46.4 °F 45.2 °F 42.8 °F 87% 29.94 in 10.0 mi SSE 3.5 mph - N/A   Overcast
4:55 AM 46.4 °F 45.2 °F 42.8 °F 87% 29.95 in 10.0 mi SSW 3.5 mph - N/A Rain Light Rain
5:15 AM 46.4 °F - 42.8 °F 87% 29.95 in 5.0 mi Calm Calm - N/A Rain Light Rain
5:35 AM 46.4 °F - 42.8 °F 87% 29.96 in 7.0 mi Calm Calm - N/A   Overcast
5:55 AM 44.6 °F 43.1 °F 42.8 °F 93% 29.96 in 7.0 mi SW 3.5 mph - N/A   Overcast
6:15 AM 44.6 °F - 42.8 °F 93% 29.97 in 7.0 mi Calm Calm - N/A   Overcast
6:35 AM 44.6 °F - 42.8 °F 93% 29.98 in 7.0 mi Calm Calm - N/A   Overcast
6:55 AM 46.4 °F - 42.8 °F 87% 29.99 in 7.0 mi Calm Calm - N/A   Overcast
7:15 AM 46.4 °F - 42.8 °F 87% 30.00 in 7.0 mi Calm Calm - N/A   Overcast
7:35 AM 46.4 °F - 42.8 °F 87% 30.00 in 7.0 mi Calm Calm - N/A   Overcast
7:55 AM 46.4 °F 44.3 °F 42.8 °F 87% 30.01 in 7.0 mi SSE 4.6 mph - N/A   Overcast
8:15 AM 46.4 °F 44.3 °F 42.8 °F 87% 30.01 in 10.0 mi SSE 4.6 mph - N/A   Overcast
8:35 AM 46.4 °F - 42.8 °F 87% 30.02 in 10.0 mi Calm Calm - N/A   Overcast
8:55 AM 46.4 °F - 42.8 °F 87% 30.02 in 10.0 mi Calm Calm - N/A   Overcast
9:15 AM 48.2 °F - 42.8 °F 82% 30.02 in 10.0 mi South 3.5 mph - N/A   Overcast
9:35 AM 48.2 °F - 42.8 °F 82% 30.03 in 10.0 mi SSE 5.8 mph - N/A   Overcast
9:55 AM 48.2 °F - 41.0 °F 76% 30.04 in 10.0 mi South 3.5 mph - N/A   Overcast
10:55 AM 50.0 °F - 42.8 °F 76% 30.04 in 10.0 mi Calm Calm - N/A   Overcast
11:15 AM 50.0 °F - 42.8 °F 76% 30.04 in 10.0 mi Calm Calm - N/A   Overcast
11:35 AM 50.0 °F - 41.0 °F 71% 30.04 in 10.0 mi Calm Calm - N/A   Overcast
11:55 AM 50.0 °F - 41.0 °F 71% 30.04 in 10.0 mi SSE 4.6 mph - N/A Rain Light Rain
12:15 PM 51.8 °F - 41.0 °F 67% 30.05 in 10.0 mi Calm Calm - N/A Rain Light Rain
12:35 PM 51.8 °F - 41.0 °F 67% 30.05 in 10.0 mi SE 6.9 mph - N/A   Overcast
12:55 PM 51.8 °F - 42.8 °F 71% 30.05 in 10.0 mi ESE 5.8 mph - N/A   Overcast
1:15 PM 51.8 °F - 41.0 °F 67% 30.04 in 10.0 mi SE 3.5 mph - N/A   Overcast
2:15 PM 51.8 °F - 41.0 °F 67% 30.04 in 10.0 mi Calm Calm - N/A   Overcast
2:35 PM 53.6 °F - 41.0 °F 62% 30.03 in 10.0 mi Calm Calm - N/A   Scattered Clouds
2:55 PM 53.6 °F - 41.0 °F 62% 30.03 in 10.0 mi Calm Calm - N/A   Mostly Cloudy
3:15 PM 53.6 °F - 39.2 °F 58% 30.03 in 10.0 mi Calm Calm - N/A   Overcast
3:35 PM 53.6 °F - 41.0 °F 62% 30.03 in 10.0 mi Calm Calm - N/A   Overcast
3:55 PM 53.6 °F - 39.2 °F 58% 30.03 in 10.0 mi SSE 3.5 mph - N/A   Overcast
4:15 PM 53.6 °F - 39.2 °F 58% 30.03 in 10.0 mi SE 3.5 mph - N/A   Overcast
4:35 PM 53.6 °F - 39.2 °F 58% 30.03 in 10.0 mi Calm Calm - N/A   Overcast
4:55 PM 53.6 °F - 39.2 °F 58% 30.04 in 10.0 mi SW 3.5 mph - N/A   Overcast
5:15 PM 53.6 °F - 41.0 °F 62% 30.04 in 10.0 mi Calm Calm - N/A   Overcast
5:35 PM 53.6 °F - 39.2 °F 58% 30.04 in 10.0 mi Calm Calm - N/A   Overcast
6:15 PM 51.8 °F - 41.0 °F 67% 30.04 in 10.0 mi Calm Calm - N/A   Clear
6:35 PM 50.0 °F - 42.8 °F 76% 30.05 in 10.0 mi WSW 3.5 mph - N/A   Scattered Clouds
6:55 PM 50.0 °F - 44.6 °F 82% 30.05 in 10.0 mi WSW 3.5 mph - N/A   Mostly Cloudy
7:15 PM 48.2 °F - 44.6 °F 87% 30.06 in 10.0 mi SW 4.6 mph - N/A   Mostly Cloudy
7:35 PM 50.0 °F - 44.6 °F 82% 30.06 in 10.0 mi Calm Calm - N/A   Overcast
7:55 PM 48.2 °F - 44.6 °F 87% 30.06 in 10.0 mi South 3.5 mph - N/A   Mostly Cloudy
8:35 PM 48.2 °F - 44.6 °F 87% 30.07 in 10.0 mi South 4.6 mph - N/A   Overcast
8:55 PM 46.4 °F 44.3 °F 44.6 °F 93% 30.07 in 10.0 mi SSW 4.6 mph - N/A   Overcast
9:35 PM 46.4 °F 45.2 °F 44.6 °F 93% 30.08 in 10.0 mi SSW 3.5 mph - N/A   Mostly Cloudy
9:55 PM 46.4 °F 45.2 °F 44.6 °F 93% 30.08 in 10.0 mi South 3.5 mph - N/A   Overcast
10:15 PM 48.2 °F - 44.6 °F 87% 30.09 in 10.0 mi Calm Calm - N/A   Overcast
10:35 PM 48.2 °F - 44.6 °F 87% 30.08 in 10.0 mi South 3.5 mph - N/A   Overcast
10:55 PM 48.2 °F - 44.6 °F 87% 30.08 in 10.0 mi Calm Calm - N/A   Overcast
11:15 PM 48.2 °F - 44.6 °F 87% 30.08 in 10.0 mi South 3.5 mph - N/A   Overcast
11:35 PM 46.4 °F - 44.6 °F 93% 30.08 in 10.0 mi Calm Calm - N/A   Overcast
11:55 PM 46.4 °F 45.2 °F 44.6 °F 93% 30.08 in 10.0 mi SW 3.5 mph - N/A   Overcast